Terminal Aerodrome Forecast
Issued by NWS Portland, OR

Home | Current Version | Previous Version | Text Only | Print | Product List | Glossary On
Versions: 1 2 3 4 5 6 7 8 9 10 11 12 13 14 15 16 17 18 19 20 21 22 23 24 25 26 27 28 29 30 31 32 33 34 35 36 37 38 39 40 41 42 43 44 45 46 47 48 49 50
000
FTUS46 KPQR 180901 AAA
TAFPDX
TAF AMD
KPDX 180901Z 1809/1906 12008KT P6SM -RA BKN020 OVC050
     FM181100 11005KT 6SM BR FEW008 SCT015 BKN030
     FM181500 11012KT P6SM FEW030 BKN050
     FM182300 11012KT P6SM -RA SCT030 OVC060=

USA.gov is the U.S. government's official web portal to all federal, state and local government web resources and services.